Flag for U.S.A. Weather past 2 weeks in Trenton, New Jersey, U.S.A.

Now
77 °F

Sunny.


Feels Like: 79 °F
Forecast: 63 / 82 °F
Wind: 3 mph from North

Location: Mercer County Airport

Current Time: Jul 25, 2014 at 12:18:36 PM

Latest Report: Jul 25, 2014 at 11:53 AM


Visibility: 10 mi

Pressure: 30.00 "Hg

Humidity: 50%

Dew point: 57 °F

Location of TrentonLocation

Historic Weather in Trenton — Graph

°F

Trenton temperature yesterday

Maximum temperature yesterday: 80 °F (at 3:53 PM)
Minimum temperature yesterday: 68 °F (at 10:53 PM)
Average temperature yesterday: 73 °F

Past Weeks' High & Low Weather Summary

 TemperatureHumidityPressure
High90 °F (Jul 23, 4:53 PM)97% (Jul 14, 8:56 PM)30.23 "Hg (Jul 14, 8:56 PM)
Low60 °F (Jul 18, 5:53 AM)36% (Jul 11, 5:53 PM)29.70 "Hg (Jul 15, 3:53 PM)
Average74 °F68%30.01 "Hg
* Reported Jul 10 10:53 AM — Jul 25 10:53 AM, Trenton, Weather by CustomWeather, © 2014

Note: Actual official high and low records may vary slightly from our data, if they occured in-between our weather recording intervals... More about our weather records

Advertising

Trenton weather history for previous 24 hours

 ConditionsComfort  
Time TempWeatherWind HumidityBarometerVisibility
10:53 AM
Jul 25
76 °FSunny.3 mph50%30.01 "Hg10 mi
9:53 AM74 °FSunny.5 mph56%30.00 "Hg10 mi
8:53 AM69 °FSunny.7 mph61%30.01 "Hg10 mi
7:53 AM63 °FPassing clouds.5 mph73%30.00 "Hg10 mi
6:53 AM61 °FSunny.6 mph72%29.98 "Hg10 mi
5:53 AM60 °FPassing clouds.6 mph75%29.95 "Hg10 mi
4:53 AM61 °FPassing clouds.5 mph72%29.94 "Hg10 mi
3:53 AM63 °FClear.8 mph68%29.93 "Hg10 mi
2:53 AM64 °FClear.8 mph65%29.93 "Hg10 mi
1:53 AM65 °FClear.8 mph63%29.93 "Hg10 mi
12:53 AM67 °FClear.7 mph61%29.91 "Hg10 mi
11:53 PM
Jul 24
68 °FPassing clouds.7 mph61%29.90 "Hg10 mi
10:53 PM68 °FPassing clouds.6 mph63%29.90 "Hg10 mi
9:53 PM70 °FPassing clouds.7 mph59%29.89 "Hg10 mi
8:53 PM72 °FPassing clouds.6 mph55%29.87 "Hg10 mi
7:53 PM74 °FSunny.7 mph52%29.85 "Hg10 mi
6:53 PM77 °FPassing clouds.6 mph45%29.83 "Hg10 mi
5:53 PM78 °FScattered clouds.7 mph45%29.83 "Hg10 mi
4:53 PM78 °FPartly sunny.7 mph48%29.83 "Hg10 mi
3:53 PM80 °FSunny.7 mph45%29.83 "Hg10 mi
2:53 PM79 °FScattered clouds.5 mph47%29.84 "Hg10 mi
1:53 PM78 °FSunny.9 mph50%29.85 "Hg10 mi
12:53 PM76 °FScattered clouds.10 mph56%29.87 "Hg10 mi
Weather by CustomWeather, © 2014

See weather overviewHow to use our weather pages